Time,TemperatureF,DewpointF,PressureIn,WindDirection,WindDirectionDegrees,WindSpeedMPH,WindSpeedGustMPH,Humidity,HourlyPrecipIn,Conditions,Clouds,dailyrainin,SoftwareType,DateUTC
2013-04-24 00:01:00,71.1,61.9,30.12,ENE,69,9.0,11.0,73,0.00,,,0.00,meteohub,2013-04-24 04:01:00,
2013-04-24 00:02:00,71.1,61.9,30.12,ENE,61,5.0,11.0,73,0.00,,,0.00,meteohub,2013-04-24 04:02:00,
2013-04-24 00:04:00,71.1,61.9,30.12,ENE,70,5.0,11.0,73,0.00,,,0.00,meteohub,2013-04-24 04:04:00,
2013-04-24 00:05:00,71.1,61.9,30.12,ENE,68,7.0,11.0,73,0.00,,,0.00,meteohub,2013-04-24 04:05:00,
2013-04-24 00:10:00,71.1,61.9,30.12,ENE,67,0.0,13.0,73,0.00,,,0.00,meteohub,2013-04-24 04:10:00,
2013-04-24 00:15:00,70.9,62.2,30.12,ENE,65,2.0,13.0,74,0.00,,,0.00,meteohub,2013-04-24 04:15:00,
2013-04-24 00:20:00,70.7,62.1,30.12,ENE,63,3.0,11.0,74,0.00,,,0.00,meteohub,2013-04-24 04:20:00,
2013-04-24 00:25:00,70.7,62.4,30.12,ENE,65,4.0,10.0,75,0.00,,,0.00,meteohub,2013-04-24 04:25:00,
2013-04-24 00:31:00,70.5,62.2,30.12,ENE,64,5.0,10.0,75,0.00,,,0.00,meteohub,2013-04-24 04:31:00,
2013-04-24 00:36:00,70.5,62.2,30.12,ENE,57,8.0,10.0,75,0.00,,,0.00,meteohub,2013-04-24 04:36:00,
2013-04-24 00:41:00,70.3,62.1,30.12,ENE,65,4.0,10.0,75,0.00,,,0.00,meteohub,2013-04-24 04:41:00,
2013-04-24 00:46:00,70.3,62.1,30.12,ENE,61,0.0,10.0,75,0.00,,,0.00,meteohub,2013-04-24 04:46:00,
2013-04-24 00:51:00,70.3,62.4,30.12,ENE,71,2.0,10.0,76,0.00,,,0.00,meteohub,2013-04-24 04:51:00,
2013-04-24 00:56:00,70.2,62.6,30.12,ENE,76,1.0,10.0,77,0.00,,,0.00,meteohub,2013-04-24 04:56:00,
2013-04-24 01:01:00,70.0,62.1,30.12,ENE,67,2.0,9.0,76,0.00,,,0.00,meteohub,2013-04-24 05:01:00,
2013-04-24 01:06:00,70.0,62.4,30.12,ENE,65,0.0,9.0,77,0.00,,,0.00,meteohub,2013-04-24 05:06:00,
2013-04-24 01:11:00,69.6,62.1,30.12,NE,55,6.0,9.0,77,0.00,,,0.00,meteohub,2013-04-24 05:11:00,
2013-04-24 01:16:00,69.6,62.1,30.12,ENE,63,7.0,9.0,77,0.00,,,0.00,meteohub,2013-04-24 05:16:00,
2013-04-24 01:21:00,69.4,62.2,30.12,ENE,66,0.0,9.0,78,0.00,,,0.00,meteohub,2013-04-24 05:21:00,
2013-04-24 01:26:00,69.4,62.2,30.11,ENE,65,1.0,8.0,78,0.00,,,0.00,meteohub,2013-04-24 05:26:00,
2013-04-24 01:31:00,69.3,62.1,30.11,ENE,65,0.0,8.0,78,0.00,,,0.00,meteohub,2013-04-24 05:31:00,
2013-04-24 01:36:00,69.1,61.9,30.11,ENE,67,2.0,7.0,78,0.00,,,0.00,meteohub,2013-04-24 05:36:00,
2013-04-24 01:42:00,68.9,61.7,30.11,ENE,67,2.0,7.0,78,0.00,,,0.00,meteohub,2013-04-24 05:42:00,
2013-04-24 01:47:00,68.7,61.9,30.11,ENE,67,1.0,7.0,79,0.00,,,0.00,meteohub,2013-04-24 05:47:00,
2013-04-24 01:52:00,68.5,61.7,30.11,ENE,67,0.0,7.0,79,0.00,,,0.00,meteohub,2013-04-24 05:52:00,
2013-04-24 01:57:00,68.5,61.7,30.11,ENE,67,0.0,9.0,79,0.00,,,0.00,meteohub,2013-04-24 05:57:00,
2013-04-24 02:02:00,68.4,61.9,30.10,ENE,64,0.0,9.0,80,0.00,,,0.00,meteohub,2013-04-24 06:02:00,
2013-04-24 02:07:00,68.4,61.9,30.10,ENE,64,4.0,8.0,80,0.00,,,0.00,meteohub,2013-04-24 06:07:00,
2013-04-24 02:12:00,68.2,61.7,30.10,ENE,64,0.0,8.0,80,0.00,,,0.00,meteohub,2013-04-24 06:12:00,
2013-04-24 02:17:00,68.0,61.5,30.10,ENE,65,1.0,8.0,80,0.00,,,0.00,meteohub,2013-04-24 06:17:00,
2013-04-24 02:22:00,67.8,61.7,30.10,ENE,64,0.0,7.0,81,0.00,,,0.00,meteohub,2013-04-24 06:22:00,
2013-04-24 02:27:00,67.8,61.7,30.10,ENE,63,2.0,8.0,81,0.00,,,0.00,meteohub,2013-04-24 06:27:00,
2013-04-24 02:32:00,67.6,61.5,30.10,ENE,63,2.0,8.0,81,0.00,,,0.00,meteohub,2013-04-24 06:32:00,
2013-04-24 02:37:00,67.6,61.5,30.10,ENE,63,0.0,7.0,81,0.00,,,0.00,meteohub,2013-04-24 06:37:00,
2013-04-24 02:42:00,67.5,61.7,30.10,ENE,63,0.0,5.0,82,0.00,,,0.00,meteohub,2013-04-24 06:42:00,
2013-04-24 02:47:00,67.3,61.5,30.10,ENE,63,0.0,4.0,82,0.00,,,0.00,meteohub,2013-04-24 06:47:00,
2013-04-24 02:52:00,67.3,61.5,30.10,ENE,63,0.0,5.0,82,0.00,,,0.00,meteohub,2013-04-24 06:52:00,
2013-04-24 02:57:00,67.1,61.3,30.10,ENE,63,0.0,5.0,82,0.00,,,0.00,meteohub,2013-04-24 06:57:00,
2013-04-24 03:02:00,66.9,61.2,30.10,ENE,63,1.0,7.0,82,0.00,,,0.00,meteohub,2013-04-24 07:02:00,
2013-04-24 03:07:00,66.7,61.0,30.09,ENE,63,0.0,7.0,82,0.00,,,0.00,meteohub,2013-04-24 07:07:00,
2013-04-24 03:12:00,66.7,61.0,30.09,ENE,63,0.0,7.0,82,0.00,,,0.00,meteohub,2013-04-24 07:12:00,
2013-04-24 03:17:00,66.7,61.3,30.09,ENE,63,0.0,4.0,83,0.00,,,0.00,meteohub,2013-04-24 07:17:00,
2013-04-24 03:22:00,66.6,61.2,30.09,ENE,63,0.0,4.0,83,0.00,,,0.00,meteohub,2013-04-24 07:22:00,
2013-04-24 03:27:00,66.6,61.2,30.09,ENE,63,2.0,5.0,83,0.00,,,0.00,meteohub,2013-04-24 07:27:00,
2013-04-24 03:32:00,66.4,61.0,30.09,ENE,63,2.0,7.0,83,0.00,,,0.00,meteohub,2013-04-24 07:32:00,
2013-04-24 03:37:00,66.4,61.0,30.09,ENE,63,0.0,7.0,83,0.00,,,0.00,meteohub,2013-04-24 07:37:00,
2013-04-24 03:42:00,66.4,61.0,30.09,ENE,64,5.0,7.0,83,0.00,,,0.00,meteohub,2013-04-24 07:42:00,
2013-04-24 03:47:00,66.2,60.8,30.09,ENE,63,0.0,7.0,83,0.00,,,0.00,meteohub,2013-04-24 07:47:00,
2013-04-24 03:52:00,66.0,60.6,30.09,ENE,63,1.0,8.0,83,0.00,,,0.00,meteohub,2013-04-24 07:52:00,
2013-04-24 03:57:00,66.0,60.6,30.09,ENE,63,0.0,8.0,83,0.00,,,0.00,meteohub,2013-04-24 07:57:00,
2013-04-24 04:02:00,66.0,60.4,30.09,ENE,63,4.0,7.0,82,0.00,,,0.00,meteohub,2013-04-24 08:02:00,
2013-04-24 04:07:00,66.0,60.6,30.09,ENE,63,4.0,7.0,83,0.00,,,0.00,meteohub,2013-04-24 08:07:00,
2013-04-24 04:12:00,66.0,60.6,30.09,ENE,63,1.0,7.0,83,0.00,,,0.00,meteohub,2013-04-24 08:12:00,
2013-04-24 04:17:00,65.8,60.6,30.09,ENE,63,0.0,7.0,83,0.00,,,0.00,meteohub,2013-04-24 08:17:00,
2013-04-24 04:22:00,65.8,60.8,30.09,ENE,63,2.0,7.0,84,0.00,,,0.00,meteohub,2013-04-24 08:22:00,
2013-04-24 04:27:00,65.8,60.6,30.09,ENE,63,1.0,7.0,83,0.00,,,0.00,meteohub,2013-04-24 08:27:00,
2013-04-24 04:32:00,65.7,60.6,30.09,ENE,61,1.0,7.0,84,0.00,,,0.00,meteohub,2013-04-24 08:32:00,
2013-04-24 04:37:00,65.7,60.6,30.09,ENE,60,1.0,7.0,84,0.00,,,0.00,meteohub,2013-04-24 08:37:00,
2013-04-24 04:42:00,65.7,60.6,30.09,ENE,60,1.0,8.0,84,0.00,,,0.00,meteohub,2013-04-24 08:42:00,
2013-04-24 04:47:00,65.5,60.4,30.09,ENE,61,1.0,8.0,84,0.00,,,0.00,meteohub,2013-04-24 08:47:00,
2013-04-24 04:52:00,65.3,60.3,30.09,ENE,60,3.0,8.0,84,0.00,,,0.00,meteohub,2013-04-24 08:52:00,
2013-04-24 04:57:00,65.1,60.1,30.09,ENE,59,1.0,9.0,84,0.00,,,0.00,meteohub,2013-04-24 08:57:00,
2013-04-24 05:02:00,65.1,60.4,30.09,ENE,60,5.0,9.0,85,0.00,,,0.00,meteohub,2013-04-24 09:02:00,
2013-04-24 05:08:00,65.1,60.4,30.09,ENE,61,0.0,9.0,85,0.00,,,0.00,meteohub,2013-04-24 09:08:00,
2013-04-24 05:13:00,65.1,60.4,30.09,ENE,62,1.0,8.0,85,0.00,,,0.00,meteohub,2013-04-24 09:13:00,
2013-04-24 05:18:00,65.1,60.4,30.10,ENE,62,8.0,8.0,85,0.00,,,0.00,meteohub,2013-04-24 09:18:00,
2013-04-24 05:23:00,64.9,60.3,30.10,ENE,63,0.0,8.0,85,0.00,,,0.00,meteohub,2013-04-24 09:23:00,
2013-04-24 05:28:00,64.9,60.3,30.10,ENE,68,0.0,9.0,85,0.00,,,0.00,meteohub,2013-04-24 09:28:00,
2013-04-24 05:34:00,64.9,60.3,30.10,ENE,59,3.0,9.0,85,0.00,,,0.00,meteohub,2013-04-24 09:34:00,
2013-04-24 05:39:00,64.9,60.3,30.10,ENE,61,0.0,9.0,85,0.00,,,0.00,meteohub,2013-04-24 09:39:00,
2013-04-24 05:44:00,64.9,60.3,30.10,ENE,60,0.0,9.0,85,0.00,,,0.00,meteohub,2013-04-24 09:44:00,
2013-04-24 05:49:00,64.9,60.3,30.10,ENE,63,0.0,9.0,85,0.00,,,0.00,meteohub,2013-04-24 09:49:00,
2013-04-24 05:55:00,64.8,60.4,30.10,ENE,64,3.0,10.0,86,0.00,,,0.00,meteohub,2013-04-24 09:55:00,
2013-04-24 06:00:00,64.8,60.4,30.10,ENE,64,4.0,10.0,86,0.00,,,0.00,meteohub,2013-04-24 10:00:00,
2013-04-24 06:05:00,64.8,60.4,30.10,ENE,59,2.0,8.0,86,0.00,,,0.00,meteohub,2013-04-24 10:05:00,
2013-04-24 06:10:00,64.8,60.4,30.10,ENE,61,4.0,8.0,86,0.00,,,0.00,meteohub,2013-04-24 10:10:00,
2013-04-24 06:16:00,64.6,60.3,30.10,ENE,61,7.0,7.0,86,0.00,,,0.00,meteohub,2013-04-24 10:16:00,
2013-04-24 06:21:00,64.6,60.3,30.10,ENE,61,4.0,8.0,86,0.00,,,0.00,meteohub,2013-04-24 10:21:00,
2013-04-24 06:26:00,64.6,60.3,30.10,ENE,61,3.0,8.0,86,0.00,,,0.00,meteohub,2013-04-24 10:26:00,
2013-04-24 06:31:00,64.8,60.4,30.10,ENE,61,1.0,8.0,86,0.00,,,0.00,meteohub,2013-04-24 10:31:00,
2013-04-24 06:36:00,64.8,60.8,30.11,ENE,61,0.0,8.0,87,0.00,,,0.00,meteohub,2013-04-24 10:36:00,
2013-04-24 06:41:00,64.6,60.6,30.11,ENE,61,2.0,5.0,87,0.00,,,0.00,meteohub,2013-04-24 10:41:00,
2013-04-24 06:46:00,64.6,60.6,30.11,ENE,61,5.0,7.0,87,0.00,,,0.00,meteohub,2013-04-24 10:46:00,
2013-04-24 06:51:00,64.6,60.6,30.11,ENE,61,5.0,7.0,87,0.00,,,0.00,meteohub,2013-04-24 10:51:00,
2013-04-24 06:56:00,64.6,60.6,30.11,ENE,61,0.0,7.0,87,0.00,,,0.00,meteohub,2013-04-24 10:56:00,
2013-04-24 07:01:00,64.6,60.6,30.11,ENE,61,0.0,7.0,87,0.00,,,0.00,meteohub,2013-04-24 11:01:00,
2013-04-24 07:07:00,64.6,60.6,30.12,ENE,61,1.0,8.0,87,0.00,,,0.00,meteohub,2013-04-24 11:07:00,
2013-04-24 07:12:00,64.6,60.6,30.12,ENE,61,2.0,8.0,87,0.00,,,0.00,meteohub,2013-04-24 11:12:00,
2013-04-24 07:17:00,64.8,60.8,30.12,ENE,61,3.0,8.0,87,0.00,,,0.00,meteohub,2013-04-24 11:17:00,
2013-04-24 07:22:00,64.8,60.8,30.12,ENE,61,4.0,7.0,87,0.00,,,0.00,meteohub,2013-04-24 11:22:00,
2013-04-24 07:27:00,64.9,61.0,30.12,ENE,61,0.0,7.0,87,0.00,,,0.00,meteohub,2013-04-24 11:27:00,
2013-04-24 07:32:00,65.1,61.2,30.12,ENE,61,1.0,5.0,87,0.00,,,0.00,meteohub,2013-04-24 11:32:00,
2013-04-24 07:37:00,65.3,61.3,30.12,ENE,59,0.0,5.0,87,0.00,,,0.00,meteohub,2013-04-24 11:37:00,
2013-04-24 07:42:00,65.7,61.7,30.12,ENE,59,1.0,5.0,87,0.00,,,0.00,meteohub,2013-04-24 11:42:00,
2013-04-24 07:47:00,65.8,61.9,30.12,ENE,59,3.0,5.0,87,0.00,,,0.00,meteohub,2013-04-24 11:47:00,
2013-04-24 07:52:00,66.0,61.7,30.13,ENE,59,0.0,5.0,86,0.00,,,0.00,meteohub,2013-04-24 11:52:00,
2013-04-24 07:57:00,66.4,62.1,30.13,ENE,59,0.0,5.0,86,0.00,,,0.00,meteohub,2013-04-24 11:57:00,
2013-04-24 08:02:00,66.7,62.1,30.13,ENE,58,0.0,5.0,85,0.00,,,0.00,meteohub,2013-04-24 12:02:00,
2013-04-24 08:07:00,66.9,62.2,30.14,ENE,58,0.0,5.0,85,0.00,,,0.00,meteohub,2013-04-24 12:07:00,
2013-04-24 08:12:00,67.3,62.2,30.14,ENE,58,0.0,5.0,84,0.00,,,0.00,meteohub,2013-04-24 12:12:00,
2013-04-24 08:17:00,67.5,62.4,30.13,ENE,59,0.0,5.0,84,0.00,,,0.00,meteohub,2013-04-24 12:17:00,
2013-04-24 08:22:00,67.6,62.6,30.14,ENE,59,0.0,4.0,84,0.00,,,0.00,meteohub,2013-04-24 12:22:00,
2013-04-24 08:27:00,68.0,63.0,30.14,ENE,59,1.0,4.0,84,0.00,,,0.00,meteohub,2013-04-24 12:27:00,
2013-04-24 08:32:00,68.2,62.8,30.14,ENE,61,3.0,4.0,83,0.00,,,0.00,meteohub,2013-04-24 12:32:00,
2013-04-24 08:37:00,68.2,62.8,30.14,ENE,60,1.0,4.0,83,0.00,,,0.00,meteohub,2013-04-24 12:37:00,
2013-04-24 08:42:00,68.5,62.8,30.14,ENE,63,1.0,7.0,82,0.00,,,0.00,meteohub,2013-04-24 12:42:00,
2013-04-24 08:47:00,68.7,63.0,30.14,ENE,63,2.0,7.0,82,0.00,,,0.00,meteohub,2013-04-24 12:47:00,
2013-04-24 08:52:00,68.9,63.1,30.14,ENE,65,3.0,7.0,82,0.00,,,0.00,meteohub,2013-04-24 12:52:00,
2013-04-24 08:57:00,69.3,63.1,30.14,ENE,66,0.0,8.0,81,0.00,,,0.00,meteohub,2013-04-24 12:57:00,
2013-04-24 09:02:00,69.4,63.3,30.14,ENE,65,5.0,8.0,81,0.00,,,0.00,meteohub,2013-04-24 13:02:00,
2013-04-24 09:07:00,69.8,63.3,30.14,ENE,65,2.0,8.0,80,0.00,,,0.00,meteohub,2013-04-24 13:07:00,
2013-04-24 09:12:00,70.2,63.7,30.14,ENE,61,0.0,5.0,80,0.00,,,0.00,meteohub,2013-04-24 13:12:00,
2013-04-24 09:17:00,70.3,63.9,30.15,ENE,70,1.0,5.0,80,0.00,,,0.00,meteohub,2013-04-24 13:17:00,
2013-04-24 09:22:00,70.7,63.5,30.15,ENE,69,0.0,5.0,78,0.00,,,0.00,meteohub,2013-04-24 13:22:00,
2013-04-24 09:27:00,71.1,64.2,30.15,ENE,69,3.0,5.0,79,0.00,,,0.00,meteohub,2013-04-24 13:27:00,
2013-04-24 09:32:00,71.4,64.2,30.15,ENE,69,2.0,5.0,78,0.00,,,0.00,meteohub,2013-04-24 13:32:00,
2013-04-24 09:37:00,72.0,64.8,30.15,ENE,71,2.0,4.0,78,0.00,,,0.00,meteohub,2013-04-24 13:37:00,
2013-04-24 09:42:00,72.3,64.8,30.15,East,84,10.0,10.0,77,0.00,,,0.00,meteohub,2013-04-24 13:42:00,
2013-04-24 09:47:00,72.7,64.2,30.15,East,86,5.0,14.0,75,0.00,,,0.00,meteohub,2013-04-24 13:47:00,
2013-04-24 09:52:00,72.7,63.9,30.16,East,90,8.0,14.0,74,0.00,,,0.00,meteohub,2013-04-24 13:52:00,
2013-04-24 09:57:00,73.0,64.2,30.16,East,83,3.0,14.0,74,0.00,,,0.00,meteohub,2013-04-24 13:57:00,
2013-04-24 10:02:00,73.0,63.9,30.16,East,87,2.0,11.0,73,0.00,,,0.00,meteohub,2013-04-24 14:02:00,
2013-04-24 10:07:00,73.4,64.6,30.16,ENE,74,8.0,14.0,74,0.00,,,0.00,meteohub,2013-04-24 14:07:00,
2013-04-24 10:12:00,73.6,64.4,30.16,East,85,8.0,14.0,73,0.00,,,0.00,meteohub,2013-04-24 14:12:00,
2013-04-24 10:17:00,73.9,64.4,30.16,East,80,5.0,14.0,72,0.00,,,0.00,meteohub,2013-04-24 14:17:00,
2013-04-24 10:22:00,74.3,64.8,30.16,East,92,5.0,11.0,72,0.00,,,0.00,meteohub,2013-04-24 14:22:00,
2013-04-24 10:27:00,74.7,65.5,30.15,East,90,9.0,11.0,73,0.00,,,0.00,meteohub,2013-04-24 14:27:00,
2013-04-24 10:32:00,74.8,64.8,30.15,East,82,3.0,11.0,71,0.00,,,0.00,meteohub,2013-04-24 14:32:00,
2013-04-24 10:37:00,74.8,64.8,30.15,ENE,71,1.0,9.0,71,0.00,,,0.00,meteohub,2013-04-24 14:37:00,
2013-04-24 10:42:00,75.4,64.9,30.15,ENE,66,5.0,9.0,70,0.00,,,0.00,meteohub,2013-04-24 14:42:00,
2013-04-24 10:47:00,75.9,64.9,30.15,ENE,75,2.0,9.0,69,0.00,,,0.00,meteohub,2013-04-24 14:47:00,
2013-04-24 10:52:00,76.3,64.9,30.15,ENE,74,4.0,9.0,68,0.00,,,0.00,meteohub,2013-04-24 14:52:00,
2013-04-24 10:57:00,76.5,64.8,30.16,ENE,72,3.0,9.0,67,0.00,,,0.00,meteohub,2013-04-24 14:57:00,
2013-04-24 11:02:00,76.6,65.3,30.16,ENE,72,2.0,8.0,68,0.00,,,0.00,meteohub,2013-04-24 15:02:00,
2013-04-24 11:10:00,77.4,65.1,30.16,ENE,71,2.0,8.0,66,0.00,,,0.00,meteohub,2013-04-24 15:10:00,
2013-04-24 11:15:00,77.5,65.7,30.16,ENE,78,4.0,8.0,67,0.00,,,0.00,meteohub,2013-04-24 15:15:00,
2013-04-24 11:20:00,77.4,65.5,30.15,East,83,1.0,9.0,67,0.00,,,0.00,meteohub,2013-04-24 15:20:00,
2013-04-24 11:25:00,77.7,65.8,30.15,ENE,69,3.0,10.0,67,0.00,,,0.00,meteohub,2013-04-24 15:25:00,
2013-04-24 11:30:00,78.3,66.4,30.15,ENE,71,3.0,10.0,67,0.00,,,0.00,meteohub,2013-04-24 15:30:00,
2013-04-24 11:35:00,78.4,65.7,30.15,ENE,75,2.0,10.0,65,0.00,,,0.00,meteohub,2013-04-24 15:35:00,
2013-04-24 11:40:00,79.2,65.8,30.15,East,85,6.0,11.0,64,0.00,,,0.00,meteohub,2013-04-24 15:40:00,
2013-04-24 11:45:00,79.3,66.0,30.15,East,79,3.0,11.0,64,0.00,,,0.00,meteohub,2013-04-24 15:45:00,
2013-04-24 11:51:00,79.3,65.7,30.15,ENE,71,3.0,11.0,63,0.00,,,0.00,meteohub,2013-04-24 15:51:00,
2013-04-24 11:56:00,79.9,65.7,30.14,ENE,61,5.0,9.0,62,0.00,,,0.00,meteohub,2013-04-24 15:56:00,
2013-04-24 12:01:00,79.7,66.0,30.14,East,88,2.0,11.0,63,0.00,,,0.00,meteohub,2013-04-24 16:01:00,
2013-04-24 12:06:00,79.7,65.5,30.14,ENE,72,7.0,11.0,62,0.00,,,0.00,meteohub,2013-04-24 16:06:00,
2013-04-24 12:11:00,80.1,64.4,30.14,ENE,68,7.0,14.0,59,0.00,,,0.00,meteohub,2013-04-24 16:11:00,
2013-04-24 12:16:00,79.9,63.3,30.14,East,91,10.0,14.0,57,0.00,,,0.00,meteohub,2013-04-24 16:16:00,
2013-04-24 12:21:00,79.3,64.2,30.14,East,90,8.0,14.0,60,0.00,,,0.00,meteohub,2013-04-24 16:21:00,
2013-04-24 12:26:00,79.5,63.9,30.14,ENE,69,9.0,14.0,59,0.00,,,0.00,meteohub,2013-04-24 16:26:00,
2013-04-24 12:31:00,79.5,63.5,30.14,East,92,7.0,14.0,58,0.00,,,0.00,meteohub,2013-04-24 16:31:00,
2013-04-24 12:36:00,79.7,63.1,30.14,East,92,3.0,13.0,57,0.00,,,0.00,meteohub,2013-04-24 16:36:00,
2013-04-24 12:41:00,80.2,64.6,30.14,East,86,3.0,13.0,59,0.00,,,0.00,meteohub,2013-04-24 16:41:00,
2013-04-24 12:47:00,80.6,64.0,30.14,East,88,5.0,10.0,57,0.00,,,0.00,meteohub,2013-04-24 16:47:00,
2013-04-24 12:52:00,81.0,63.3,30.14,East,87,7.0,9.0,55,0.00,,,0.00,meteohub,2013-04-24 16:52:00,
2013-04-24 12:57:00,81.0,62.8,30.14,East,88,2.0,9.0,54,0.00,,,0.00,meteohub,2013-04-24 16:57:00,
2013-04-24 13:02:00,81.1,62.4,30.14,East,87,6.0,8.0,53,0.00,,,0.00,meteohub,2013-04-24 17:02:00,
2013-04-24 13:07:00,81.3,63.1,30.14,East,87,2.0,8.0,54,0.00,,,0.00,meteohub,2013-04-24 17:07:00,
2013-04-24 13:12:00,81.9,63.0,30.13,East,86,5.0,7.0,53,0.00,,,0.00,meteohub,2013-04-24 17:12:00,
2013-04-24 13:17:00,82.2,63.3,30.14,East,86,1.0,7.0,53,0.00,,,0.00,meteohub,2013-04-24 17:17:00,
2013-04-24 13:23:00,82.8,64.9,30.14,East,86,1.0,7.0,55,0.00,,,0.00,meteohub,2013-04-24 17:23:00,
2013-04-24 13:28:00,83.5,64.0,30.13,East,86,1.0,7.0,52,0.00,,,0.00,meteohub,2013-04-24 17:28:00,
2013-04-24 13:33:00,84.0,63.3,30.13,East,86,6.0,7.0,50,0.00,,,0.00,meteohub,2013-04-24 17:33:00,
2013-04-24 13:38:00,83.8,62.6,30.13,East,86,2.0,6.0,49,0.00,,,0.00,meteohub,2013-04-24 17:38:00,
2013-04-24 13:43:00,83.5,63.0,30.13,East,87,0.0,8.0,50,0.00,,,0.00,meteohub,2013-04-24 17:43:00,
2013-04-24 13:49:00,83.5,63.5,30.12,East,87,1.0,8.0,51,0.00,,,0.00,meteohub,2013-04-24 17:49:00,
2013-04-24 13:54:00,83.7,64.2,30.12,East,87,0.0,8.0,52,0.00,,,0.00,meteohub,2013-04-24 17:54:00,
2013-04-24 13:59:00,82.4,63.5,30.12,East,87,1.0,7.0,53,0.00,,,0.00,meteohub,2013-04-24 17:59:00,
2013-04-24 14:04:00,82.0,64.2,30.12,East,87,0.0,7.0,55,0.00,,,0.00,meteohub,2013-04-24 18:04:00,
2013-04-24 14:09:00,82.9,63.5,30.12,East,90,1.0,5.0,52,0.00,,,0.00,meteohub,2013-04-24 18:09:00,
2013-04-24 14:14:00,83.8,64.4,30.12,East,90,2.0,3.0,52,0.00,,,0.00,meteohub,2013-04-24 18:14:00,
2013-04-24 14:19:00,84.9,64.8,30.12,East,90,0.0,5.0,51,0.00,,,0.00,meteohub,2013-04-24 18:19:00,
2013-04-24 14:24:00,85.6,63.7,30.12,East,90,0.0,5.0,48,0.00,,,0.00,meteohub,2013-04-24 18:24:00,
2013-04-24 14:30:00,86.4,61.9,30.12,East,90,0.0,5.0,44,0.00,,,0.00,meteohub,2013-04-24 18:30:00,
2013-04-24 14:35:00,87.3,61.3,30.12,East,90,0.0,5.0,42,0.00,,,0.00,meteohub,2013-04-24 18:35:00,
2013-04-24 14:40:00,87.3,60.6,30.12,East,90,0.0,3.0,41,0.00,,,0.00,meteohub,2013-04-24 18:40:00,
2013-04-24 14:45:00,87.1,61.2,30.12,East,90,0.0,3.0,42,0.00,,,0.00,meteohub,2013-04-24 18:45:00,
2013-04-24 14:50:00,86.2,58.3,30.12,East,90,1.0,3.0,39,0.00,,,0.00,meteohub,2013-04-24 18:50:00,
2013-04-24 14:55:00,84.6,58.3,30.12,East,90,2.0,3.0,41,0.00,,,0.00,meteohub,2013-04-24 18:55:00,
2013-04-24 15:00:00,83.1,60.3,30.11,East,90,1.0,3.0,46,0.00,,,0.00,meteohub,2013-04-24 19:00:00,
2013-04-24 15:05:00,82.9,61.2,30.11,East,90,0.0,3.0,48,0.00,,,0.00,meteohub,2013-04-24 19:05:00,
2013-04-24 15:10:00,84.4,61.3,30.11,East,90,0.0,5.0,46,0.00,,,0.00,meteohub,2013-04-24 19:10:00,
2013-04-24 15:16:00,85.5,61.0,30.11,East,90,1.0,5.0,44,0.00,,,0.00,meteohub,2013-04-24 19:16:00,
2013-04-24 15:21:00,85.8,62.1,30.11,East,90,0.0,6.0,45,0.00,,,0.00,meteohub,2013-04-24 19:21:00,
2013-04-24 15:26:00,86.2,60.4,30.11,East,90,1.0,6.0,42,0.00,,,0.00,meteohub,2013-04-24 19:26:00,
2013-04-24 15:31:00,85.5,62.2,30.10,East,90,3.0,3.0,46,0.00,,,0.00,meteohub,2013-04-24 19:31:00,
2013-04-24 15:36:00,84.6,60.3,30.10,East,90,2.0,5.0,44,0.00,,,0.00,meteohub,2013-04-24 19:36:00,
2013-04-24 15:41:00,83.8,60.8,30.10,East,90,0.0,5.0,46,0.00,,,0.00,meteohub,2013-04-24 19:41:00,
2013-04-24 15:46:00,84.6,64.9,30.10,East,90,0.0,5.0,52,0.00,,,0.00,meteohub,2013-04-24 19:46:00,
2013-04-24 15:51:00,85.6,64.9,30.10,NNE,30,3.0,3.0,50,0.00,,,0.00,meteohub,2013-04-24 19:51:00,
2013-04-24 15:56:00,85.6,64.2,30.09,WNW,300,5.0,7.0,49,0.00,,,0.00,meteohub,2013-04-24 19:56:00,
2013-04-24 16:01:00,85.3,64.6,30.09,WSW,242,5.0,7.0,50,0.00,,,0.00,meteohub,2013-04-24 20:01:00,
2013-04-24 16:06:00,85.6,64.2,30.10,West,259,3.0,8.0,49,0.00,,,0.00,meteohub,2013-04-24 20:06:00,
2013-04-24 16:11:00,86.4,64.9,30.09,West,259,0.0,8.0,49,0.00,,,0.00,meteohub,2013-04-24 20:11:00,
2013-04-24 16:16:00,86.4,63.7,30.09,West,271,2.0,8.0,47,0.00,,,0.00,meteohub,2013-04-24 20:16:00,
2013-04-24 16:22:00,86.5,64.6,30.09,WNW,296,6.0,6.0,48,0.00,,,0.00,meteohub,2013-04-24 20:22:00,
2013-04-24 16:27:00,86.4,64.4,30.09,WNW,293,2.0,6.0,48,0.00,,,0.00,meteohub,2013-04-24 20:27:00,
2013-04-24 16:32:00,85.5,64.0,30.09,WNW,300,5.0,6.0,49,0.00,,,0.00,meteohub,2013-04-24 20:32:00,
2013-04-24 16:37:00,84.6,63.9,30.09,NW,311,1.0,7.0,50,0.00,,,0.00,meteohub,2013-04-24 20:37:00,
2013-04-24 16:42:00,84.7,63.5,30.09,WNW,298,4.0,7.0,49,0.00,,,0.00,meteohub,2013-04-24 20:42:00,
2013-04-24 16:47:00,83.8,63.1,30.09,WNW,302,5.0,7.0,50,0.00,,,0.00,meteohub,2013-04-24 20:47:00,
2013-04-24 16:52:00,82.9,62.4,30.09,WNW,292,5.0,6.0,50,0.00,,,0.00,meteohub,2013-04-24 20:52:00,
2013-04-24 16:57:00,81.9,63.0,30.09,WNW,298,6.0,9.0,53,0.00,,,0.00,meteohub,2013-04-24 20:57:00,
2013-04-24 17:02:00,81.0,64.2,30.09,NW,308,5.0,9.0,57,0.00,,,0.00,meteohub,2013-04-24 21:02:00,
2013-04-24 17:07:00,81.0,65.3,30.09,NW,318,4.0,9.0,59,0.00,,,0.00,meteohub,2013-04-24 21:07:00,
2013-04-24 17:12:00,80.8,65.7,30.09,WNW,300,5.0,9.0,60,0.00,,,0.00,meteohub,2013-04-24 21:12:00,
2013-04-24 17:17:00,81.0,66.2,30.09,WNW,296,4.0,9.0,61,0.00,,,0.00,meteohub,2013-04-24 21:17:00,
2013-04-24 17:22:00,80.6,66.4,30.09,WNW,300,1.0,9.0,62,0.00,,,0.00,meteohub,2013-04-24 21:22:00,
2013-04-24 17:27:00,81.1,66.9,30.09,WNW,287,2.0,11.0,62,0.00,,,0.00,meteohub,2013-04-24 21:27:00,
2013-04-24 17:32:00,80.2,66.9,30.09,WNW,298,5.0,11.0,64,0.00,,,0.00,meteohub,2013-04-24 21:32:00,
2013-04-24 17:37:00,80.2,66.0,30.09,WNW,288,1.0,11.0,62,0.00,,,0.00,meteohub,2013-04-24 21:37:00,
2013-04-24 17:42:00,80.2,66.6,30.09,WNW,296,5.0,10.0,63,0.00,,,0.00,meteohub,2013-04-24 21:42:00,
2013-04-24 17:47:00,79.9,66.2,30.09,NW,314,6.0,10.0,63,0.00,,,0.00,meteohub,2013-04-24 21:47:00,
2013-04-24 17:52:00,79.7,66.4,30.09,NW,314,6.0,10.0,64,0.00,,,0.00,meteohub,2013-04-24 21:52:00,
2013-04-24 17:57:00,79.5,66.7,30.09,WNW,302,0.0,10.0,65,0.00,,,0.00,meteohub,2013-04-24 21:57:00,
2013-04-24 18:02:00,79.3,66.6,30.09,WNW,290,5.0,10.0,65,0.00,,,0.00,meteohub,2013-04-24 22:02:00,
2013-04-24 18:07:00,78.8,66.6,30.09,NW,311,4.0,10.0,66,0.00,,,0.00,meteohub,2013-04-24 22:07:00,
2013-04-24 18:12:00,78.8,66.9,30.10,WNW,295,1.0,10.0,67,0.00,,,0.00,meteohub,2013-04-24 22:12:00,
2013-04-24 18:17:00,78.3,66.0,30.09,WNW,296,7.0,10.0,66,0.00,,,0.00,meteohub,2013-04-24 22:17:00,
2013-04-24 18:22:00,77.5,65.7,30.10,WNW,301,6.0,9.0,67,0.00,,,0.00,meteohub,2013-04-24 22:22:00,
2013-04-24 18:27:00,77.2,65.8,30.10,WNW,302,5.0,11.0,68,0.00,,,0.00,meteohub,2013-04-24 22:27:00,
2013-04-24 18:32:00,77.0,65.7,30.09,WNW,292,6.0,11.0,68,0.00,,,0.00,meteohub,2013-04-24 22:32:00,
2013-04-24 18:37:00,76.8,65.8,30.09,NW,319,5.0,9.0,69,0.00,,,0.00,meteohub,2013-04-24 22:37:00,
2013-04-24 18:42:00,76.6,65.7,30.09,WNW,302,6.0,9.0,69,0.00,,,0.00,meteohub,2013-04-24 22:42:00,
2013-04-24 18:47:00,76.5,66.0,30.10,West,281,5.0,9.0,70,0.00,,,0.00,meteohub,2013-04-24 22:47:00,
2013-04-24 18:52:00,76.3,65.8,30.09,NW,311,0.0,9.0,70,0.00,,,0.00,meteohub,2013-04-24 22:52:00,
2013-04-24 18:57:00,76.3,66.2,30.10,WNW,292,3.0,9.0,71,0.00,,,0.00,meteohub,2013-04-24 22:57:00,
2013-04-24 19:02:00,76.1,66.0,30.10,NW,315,2.0,9.0,71,0.00,,,0.00,meteohub,2013-04-24 23:02:00,
2013-04-24 19:07:00,76.1,66.0,30.10,WNW,299,3.0,8.0,71,0.00,,,0.00,meteohub,2013-04-24 23:07:00,
2013-04-24 19:12:00,75.9,65.8,30.10,NNW,333,1.0,8.0,71,0.00,,,0.00,meteohub,2013-04-24 23:12:00,
2013-04-24 19:17:00,75.7,66.0,30.10,NW,323,4.0,8.0,72,0.00,,,0.00,meteohub,2013-04-24 23:17:00,
2013-04-24 19:22:00,75.6,65.8,30.10,NW,306,0.0,8.0,72,0.00,,,0.00,meteohub,2013-04-24 23:22:00,
2013-04-24 19:27:00,75.6,65.8,30.10,NW,311,1.0,8.0,72,0.00,,,0.00,meteohub,2013-04-24 23:27:00,
2013-04-24 19:32:00,75.6,66.4,30.10,NW,314,5.0,8.0,73,0.00,,,0.00,meteohub,2013-04-24 23:32:00,
2013-04-24 19:37:00,75.4,66.2,30.10,NW,323,1.0,7.0,73,0.00,,,0.00,meteohub,2013-04-24 23:37:00,
2013-04-24 19:42:00,75.4,66.2,30.10,NNW,328,2.0,7.0,73,0.00,,,0.00,meteohub,2013-04-24 23:42:00,
2013-04-24 19:47:00,75.2,66.4,30.10,NW,323,2.0,7.0,74,0.00,,,0.00,meteohub,2013-04-24 23:47:00,
2013-04-24 19:52:00,75.0,66.2,30.10,NW,319,6.0,6.0,74,0.00,,,0.00,meteohub,2013-04-24 23:52:00,
2013-04-24 19:57:00,74.8,66.4,30.11,NNW,342,0.0,7.0,75,0.00,,,0.00,meteohub,2013-04-24 23:57:00,
2013-04-24 20:02:00,74.7,66.6,30.11,NW,326,1.0,8.0,76,0.00,,,0.00,meteohub,2013-04-25 00:02:00,
2013-04-24 20:07:00,74.3,66.6,30.11,NW,312,0.0,8.0,77,0.00,,,0.00,meteohub,2013-04-25 00:07:00,
2013-04-24 20:12:00,74.1,66.4,30.11,NW,310,1.0,9.0,77,0.00,,,0.00,meteohub,2013-04-25 00:12:00,
2013-04-24 20:17:00,73.9,66.2,30.11,NW,315,2.0,9.0,77,0.00,,,0.00,meteohub,2013-04-25 00:17:00,
2013-04-24 20:22:00,73.8,66.4,30.11,NW,320,1.0,10.0,78,0.00,,,0.00,meteohub,2013-04-25 00:22:00,
2013-04-24 20:27:00,73.6,66.7,30.11,NW,325,1.0,10.0,79,0.00,,,0.00,meteohub,2013-04-25 00:27:00,
2013-04-24 20:32:00,73.2,66.4,30.11,WNW,303,4.0,10.0,79,0.00,,,0.00,meteohub,2013-04-25 00:32:00,
2013-04-24 20:37:00,73.2,66.4,30.11,NW,318,2.0,9.0,79,0.00,,,0.00,meteohub,2013-04-25 00:37:00,
2013-04-24 20:42:00,73.0,66.6,30.12,NW,310,5.0,7.0,80,0.00,,,0.00,meteohub,2013-04-25 00:42:00,
2013-04-24 20:47:00,72.9,66.4,30.12,NW,309,4.0,9.0,80,0.00,,,0.00,meteohub,2013-04-25 00:47:00,
2013-04-24 20:52:00,72.9,66.4,30.12,NW,313,1.0,9.0,80,0.00,,,0.00,meteohub,2013-04-25 00:52:00,
2013-04-24 20:57:00,72.9,66.4,30.12,NNW,330,0.0,9.0,80,0.00,,,0.00,meteohub,2013-04-25 00:57:00,
2013-04-24 21:02:00,72.7,66.2,30.12,NNW,330,2.0,9.0,80,0.00,,,0.00,meteohub,2013-04-25 01:02:00,
2013-04-24 21:07:00,72.7,66.2,30.12,NNW,330,0.0,7.0,80,0.00,,,0.00,meteohub,2013-04-25 01:07:00,
2013-04-24 21:12:00,72.5,66.0,30.13,NNW,330,4.0,7.0,80,0.00,,,0.00,meteohub,2013-04-25 01:12:00,
2013-04-24 21:17:00,72.3,65.8,30.13,NNW,330,0.0,5.0,80,0.00,,,0.00,meteohub,2013-04-25 01:17:00,
2013-04-24 21:22:00,72.3,66.2,30.13,NNW,330,1.0,4.0,81,0.00,,,0.00,meteohub,2013-04-25 01:22:00,
2013-04-24 21:27:00,72.3,66.2,30.13,NNW,330,0.0,4.0,81,0.00,,,0.00,meteohub,2013-04-25 01:27:00,
2013-04-24 21:32:00,72.1,66.0,30.13,NNW,330,0.0,1.0,81,0.00,,,0.00,meteohub,2013-04-25 01:32:00,
2013-04-24 21:37:00,72.1,66.0,30.13,NNW,330,0.0,1.0,81,0.00,,,0.00,meteohub,2013-04-25 01:37:00,
2013-04-24 21:42:00,72.0,65.8,30.13,NNW,330,0.0,0.0,81,0.00,,,0.00,meteohub,2013-04-25 01:42:00,
2013-04-24 21:47:00,71.8,65.7,30.13,NNW,330,0.0,0.0,81,0.00,,,0.00,meteohub,2013-04-25 01:47:00,
2013-04-24 21:52:00,71.8,65.7,30.13,NNW,330,0.0,0.0,81,0.00,,,0.00,meteohub,2013-04-25 01:52:00,
2013-04-24 21:57:00,71.8,65.7,30.13,NNW,330,0.0,0.0,81,0.00,,,0.00,meteohub,2013-04-25 01:57:00,
2013-04-24 22:02:00,71.8,65.7,30.13,NNW,330,0.0,0.0,81,0.00,,,0.00,meteohub,2013-04-25 02:02:00,
2013-04-24 22:07:00,71.6,65.5,30.14,NNW,330,0.0,0.0,81,0.00,,,0.00,meteohub,2013-04-25 02:07:00,
2013-04-24 22:12:00,71.4,65.3,30.14,NNW,330,0.0,0.0,81,0.00,,,0.00,meteohub,2013-04-25 02:12:00,
2013-04-24 22:17:00,71.2,65.1,30.13,NNW,330,0.0,0.0,81,0.00,,,0.00,meteohub,2013-04-25 02:17:00,
2013-04-24 22:22:00,71.2,65.5,30.14,NNW,330,0.0,0.0,82,0.00,,,0.00,meteohub,2013-04-25 02:22:00,
2013-04-24 22:27:00,71.1,65.3,30.14,NNW,330,0.0,0.0,82,0.00,,,0.00,meteohub,2013-04-25 02:27:00,
2013-04-24 22:32:00,70.9,65.1,30.14,NNW,330,0.0,0.0,82,0.00,,,0.00,meteohub,2013-04-25 02:32:00,
2013-04-24 22:37:00,70.9,65.5,30.15,NNW,330,0.0,0.0,83,0.00,,,0.00,meteohub,2013-04-25 02:37:00,
2013-04-24 22:42:00,70.9,65.5,30.14,NNW,330,0.0,0.0,83,0.00,,,0.00,meteohub,2013-04-25 02:42:00,
2013-04-24 22:47:00,70.5,65.1,30.14,NNW,330,0.0,0.0,83,0.00,,,0.00,meteohub,2013-04-25 02:47:00,
2013-04-24 22:52:00,70.5,65.1,30.15,NNW,330,0.0,0.0,83,0.00,,,0.00,meteohub,2013-04-25 02:52:00,
2013-04-24 22:57:00,70.5,65.1,30.14,NNW,330,0.0,0.0,83,0.00,,,0.00,meteohub,2013-04-25 02:57:00,
2013-04-24 23:02:00,70.3,64.9,30.14,NNW,330,0.0,1.0,83,0.00,,,0.00,meteohub,2013-04-25 03:02:00,
2013-04-24 23:07:00,70.3,65.3,30.14,NNW,330,0.0,1.0,84,0.00,,,0.00,meteohub,2013-04-25 03:07:00,
2013-04-24 23:12:00,70.2,65.1,30.14,NNW,330,0.0,1.0,84,0.00,,,0.00,meteohub,2013-04-25 03:12:00,
2013-04-24 23:17:00,70.2,65.1,30.14,NNW,330,0.0,0.0,84,0.00,,,0.00,meteohub,2013-04-25 03:17:00,
2013-04-24 23:22:00,70.0,64.9,30.14,NNW,330,0.0,0.0,84,0.00,,,0.00,meteohub,2013-04-25 03:22:00,
2013-04-24 23:27:00,70.0,64.9,30.14,NNW,330,0.0,0.0,84,0.00,,,0.00,meteohub,2013-04-25 03:27:00,
2013-04-24 23:32:00,70.0,65.3,30.14,NNW,330,0.0,0.0,85,0.00,,,0.00,meteohub,2013-04-25 03:32:00,
2013-04-24 23:37:00,69.8,65.1,30.13,NNW,330,0.0,0.0,85,0.00,,,0.00,meteohub,2013-04-25 03:37:00,
2013-04-24 23:42:00,69.8,65.1,30.13,NNW,330,0.0,0.0,85,0.00,,,0.00,meteohub,2013-04-25 03:42:00,
2013-04-24 23:47:00,69.8,65.1,30.13,NNW,330,0.0,0.0,85,0.00,,,0.00,meteohub,2013-04-25 03:47:00,
2013-04-24 23:52:00,70.0,66.0,30.14,East,80,5.0,7.0,87,0.00,,,0.00,meteohub,2013-04-25 03:52:00,
2013-04-24 23:57:00,70.3,66.0,30.14,East,80,0.0,9.0,86,0.00,,,0.00,meteohub,2013-04-25 03:57:00,